629  
ASUS41 KBGM 271210  
RWRBGM  
 
REGIONAL WEATHER ROUNDUP  
NATIONAL WEATHER SERVICE BINGHAMTON NY  
700 AM EST THU FEB 27 2020  
 
NOTE: "FAIR" INDICATES FEW OR NO CLOUDS BELOW 12,000 FEET WITH NO  
SIGNIFICANT WEATHER AND/OR S TO VISIBILITY
.  
 
* = STATION(S) THAT DOES NOT REPORT PRECIPITATION, SUCH AS RAIN,  
SNOW, ETC, ALSO NO THUNDER OR FOG.
 
 
NYZ009-015>018-022>025-036-037-044>046-055>057-062-271300   
..CENTRAL NEW YORK
 
 
 
CITY SKY/WX TMP DP RH WIND PRES REMARKS
 
BINGHAMTON SNOW 28 26 92 W20G29 29.35R VSB 1/2 WCI 15  
CORTLAND LGT SNOW 28 28 100 W14G23 29.39R VSB 1 WCI 17  
DANSVILLE LGT SNOW 27 19 72 W13G22 29.53R WCI 16  
ELMIRA CLOUDY 31 29 92 W16G29 29.44R WCI 20  
ENDICOTT LGT SNOW 30 28 93 W14G29 29.42R WCI 20  
ITHACA LGT SNOW 28 27 96 W16G22 29.42R FOG WCI 16  
HAMILTON CLOUDY 30 27 86 NW13G29 29.35R VSB 1 WCI 20  
MONTICELLO LGT SNOW 34 32 93 W12G20 29.32R VSB 1 WCI 25  
ONEONTA SNOW 32 32 100 W10 29.27R VSB 1/4 WCI 24  
PENN YAN LGT SNOW 28 23 81 W12G22 29.43R WCI 18  
ROME LGT SNOW 31 28 89 W22G32 29.36R VSB 3/4 WCI 18  
SENECA FALLS LGT SNOW 28 27 93 W15G25 29.46R VSB 1 WCI 17  
SIDNEY LGT SNOW 32 30 93 W15G26 29.36R VSB 3/4 WCI 22  
SKANEATELES SNOW 28 27 93 MISG 29.40R VSB 1/4  
SYRACUSE LGT SNOW 30 26 85 W24G32 29.40R FOG WCI 16  

 
 
PAZ038>040-043-044-047-048-072-271300   
..NORTHEAST PENNSYLVANIA
 
 
 
CITY SKY/WX TMP DP RH WIND PRES REMARKS
 
HAZLETON LGT SNOW 30 28 93 W9G28 29.47R WCI 22  
SCRANTON LGT SNOW 32 30 92 W14 29.44R VSB 3/4 WCI 22  
TOWANDA MOSUNNY 32 25 74 W15G21 29.47R WCI 22  

 

 
KEY  
WCI = WIND CHILL INDEX  
VSB = VISIBILITY  
HX = HEAT INDEX  

 
 
 
CLICK HERE TO GO TO PREVIOUS BULLETINS.

The Nexlab NY Page
The Nexlab PA Page Main Text Page